This is the latest recevied weather packets stored in our database for station/object OE-11149. If no packets are shown the sender has not sent any weather packets the latest 10 day(s).
| Time | Temp. | Humidity | Pressure | Rain* | Wind** | Luminosity | Snow |
|---|---|---|---|---|---|---|---|
| 1787895692 | 13.33° C | 95% | 853.9 hPa | 0 mm | - | 93 W/m² | - |
| 1787895320 | 13.33° C | 95% | 854 hPa | 0 mm | - | 60 W/m² | - |
| 1787894720 | 13.33° C | 95% | 854 hPa | 0 mm | - | 40 W/m² | - |
| 1787893893 | 13.33° C | 96% | 854 hPa | 0 mm | - | 26 W/m² | - |
| 1787893520 | 13.33° C | 96% | 853.7 hPa | 0 mm | - | 13 W/m² | - |
| 1787892920 | 13.33° C | 96% | 853.7 hPa | 0 mm | - | 7 W/m² | - |
| 1787892092 | 13.33° C | 96% | 853.6 hPa | 0 mm | - | 7 W/m² | - |
| 1787891719 | 13.33° C | 96% | 853.7 hPa | 0 mm | - | 0 W/m² | - |
| 1787891120 | 12.78° C | 96% | 853.9 hPa | 0 mm | - | 0 W/m² | - |
| 1787890292 | 13.33° C | 95% | 853.7 hPa | 0 mm | - | 0 W/m² | - |
| 1787889920 | 13.33° C | 95% | 854 hPa | 0 mm | - | 0 W/m² | - |
| 1787889320 | 13.33° C | 95% | 853.9 hPa | 0 mm | - | 0 W/m² | - |
| 1787888719 | 13.33° C | 95% | 854 hPa | 0 mm | - | 0 W/m² | - |
| 1787888119 | 13.89° C | 93% | 853.9 hPa | 0 mm | - | 0 W/m² | - |
| 1787887519 | 13.33° C | 94% | 853.9 hPa | 0 mm | - | 0 W/m² | - |
| 1787886690 | 13.33° C | 94% | 853.9 hPa | 0 mm | - | 0 W/m² | - |
| 1787886318 | 13.89° C | 93% | 854 hPa | 0 mm | - | 0 W/m² | - |
| 1787885720 | 13.89° C | 93% | 854 hPa | 0 mm | - | 0 W/m² | - |
| 1787884893 | 13.89° C | 92% | 854 hPa | 0 mm | - | 0 W/m² | - |
| 1787884520 | 13.33° C | 95% | 854.1 hPa | 0 mm | - | 0 W/m² | - |
| 1787883920 | 13.33° C | 95% | 854.1 hPa | 0 mm | - | 0 W/m² | - |
| 1787883093 | 13.89° C | 93% | 854.1 hPa | 0 mm | - | 0 W/m² | - |
| 1787882720 | 13.33° C | 94% | 854.1 hPa | 0 mm | - | 0 W/m² | - |
| 1787881293 | 13.33° C | 93% | 854.1 hPa | 0 mm | - | 0 W/m² | - |
| 1787880920 | 13.33° C | 94% | 854.1 hPa | 0 mm | - | 0 W/m² | - |
* Rain latest hour (hover to see other rain measurements)
** Current wind speed in m/s (hover to see current wind gust speed)